Hourly Data Report for September 19, 2017

All times are specified in Local Standard Time (LST). Add 1 hour to adjust for Daylight Saving Time where and when it is observed.

GJOA HAVEN A
NUNAVUT

68°38'08.000" N
95°51'01.000" W
46.90 m
2302337
71597
YHK

Download Data

Hourly Data (September 2017)
Hourly Data Report for September 19, 2017
Temp Definition
°C
Dew Point Temp Definition
°C
Rel Hum Definition
%
Wind Dir Definition
10's deg

Wind Spd Definition
km/h
Visibility Definition
km
Stn Press Definition
kPa
Hmdx Definition


Wind Chill Definition


Weather Definition


TIME
00:00 Legend Double Dagger 0.8 0.2 96 7 45 16.1 101.11     LegendNANA
01:00 Legend Double Dagger 0.7 -0.2 94 6 39 16.1 101.17     LegendNANA
02:00 Legend Double Dagger 0.8 -0.5 91 7 37 16.1 101.23     LegendNANA
03:00 Legend Double Dagger 0.6 -0.9 90 6 37 16.1 101.29     LegendNANA
04:00 Legend Double Dagger 0.3 -1.0 91 7 41 16.1 101.31     LegendNANA
05:00 Legend Double Dagger 0.0 -1.5 90 7 41 16.1 101.35   -7 LegendNANA
06:00 Legend Double Dagger -0.1 -1.7 89 7 39 16.1 101.40   -7 LegendNANA
07:00 Legend Double Dagger -0.3 -1.9 89 8 41 16.1 101.45   -8 LegendNANA
08:00 Legend Double Dagger -0.2 -1.8 89 6 37 16.1 101.47   -7 LegendNANA
09:00 Legend Double Dagger -0.1 -2.0 87 8 39 16.1 101.51   -7 LegendNANA
10:00 Legend Double Dagger 0.0 -1.9 87 7 35 16.1 101.53   -7 LegendNANA
11:00 Legend Double Dagger 0.5 -1.7 85 9 35 16.1 101.57     LegendNANA
12:00 Legend Double Dagger 0.5 -1.6 86 7 35 16.1 101.61     LegendNANA
13:00 Legend Double Dagger 0.8 -1.7 83 7 34 16.1 101.62     LegendNANA
14:00 Legend Double Dagger 1.3 -1.5 82 7 32 16.1 101.65     LegendNANA
15:00 Legend Double Dagger 1.1 -1.5 83 7 37 16.1 101.67     LegendNANA
16:00 Legend Double Dagger 0.7 -1.7 84 8 28 16.1 101.70     LegendNANA
17:00 Legend Double Dagger 0.4 -1.9 85 7 34 16.1 101.74     LegendNANA
18:00 Legend Double Dagger -0.1 -2.1 86 7 34 16.1 101.78   -7 LegendNANA
19:00 Legend Double Dagger -0.5 -2.4 87 7 32 16.1 101.80   -7 LegendNANA
20:00 Legend Double Dagger -0.5 -2.4 87 8 30 16.1 101.87   -7 LegendNANA
21:00 Legend Double Dagger -0.5 -2.1 89 6 28 16.1 101.89   -7 LegendNANA
22:00 Legend Double Dagger -0.6 -2.3 88 9 32 16.1 101.92   -7 LegendNANA
23:00 Legend Double Dagger -0.8 -2.1 91 9 30 16.1 101.94   -8 Snow

Notes on Data Quality.

Legend

  • E = Estimated
  • M = Missing
  • NA = Not Available
  • ‡ = Partner data that is not subject to review by the National Climate Archives
Date modified: